Time,TemperatureF,DewpointF,PressureIn,WindDirection,WindDirectionDegrees,WindSpeedMPH,WindSpeedGustMPH,Humidity,HourlyPrecipIn,Conditions,Clouds,dailyrainin,SolarRadiationWatts/m^2,SoftwareType,DateUTC
2013-07-13 00:01:00,68.0,67.0,-100.00,ESE,102,3.0,9.0,96,0.00,,,0.20,0.000000,,2013-07-13 04:01:00,
2013-07-13 00:32:00,68.0,67.0,-100.00,ESE,102,3.0,9.0,96,0.00,,,0.20,0.000000,,2013-07-13 04:32:00,
2013-07-13 00:44:00,68.0,67.0,-100.00,ESE,102,3.0,9.0,96,0.00,,,0.20,0.000000,,2013-07-13 04:44:00,
2013-07-13 00:52:00,68.0,67.0,-100.00,ESE,102,3.0,9.0,96,0.00,,,0.20,0.000000,,2013-07-13 04:52:00,
2013-07-13 01:01:00,68.0,67.0,-100.00,ESE,112,3.0,9.0,96,0.00,,,0.20,0.000000,,2013-07-13 05:01:00,
2013-07-13 01:33:00,68.0,67.0,-100.00,ESE,112,3.0,9.0,96,0.00,,,0.20,0.000000,,2013-07-13 05:33:00,
2013-07-13 01:42:00,68.0,67.0,-100.00,ESE,112,3.0,9.0,96,0.00,,,0.20,0.000000,,2013-07-13 05:42:00,
2013-07-13 01:52:00,68.0,67.0,-100.00,ESE,112,3.0,9.0,96,0.00,,,0.20,0.000000,,2013-07-13 05:52:00,
2013-07-13 02:01:00,68.0,67.0,-100.00,ESE,113,3.0,13.0,97,0.00,,,0.20,0.000000,,2013-07-13 06:01:00,
2013-07-13 02:32:00,68.0,67.0,-100.00,ESE,113,3.0,13.0,97,0.00,,,0.20,0.000000,,2013-07-13 06:32:00,
2013-07-13 02:43:00,68.0,67.0,-100.00,ESE,113,3.0,13.0,97,0.00,,,0.20,0.000000,,2013-07-13 06:43:00,
2013-07-13 02:52:00,68.0,67.0,-100.00,ESE,113,3.0,13.0,97,0.00,,,0.20,0.000000,,2013-07-13 06:52:00,
2013-07-13 03:01:00,68.0,67.0,-100.00,East,92,2.0,7.0,98,0.01,,,0.21,0.000000,,2013-07-13 07:01:00,
2013-07-13 03:33:00,68.0,67.0,-100.00,East,92,2.0,7.0,98,0.01,,,0.21,0.000000,,2013-07-13 07:33:00,
2013-07-13 03:44:00,68.0,67.0,-100.00,East,92,2.0,7.0,98,0.01,,,0.21,0.000000,,2013-07-13 07:44:00,
2013-07-13 03:53:00,68.0,67.0,-100.00,East,92,2.0,7.0,98,0.01,,,0.21,0.000000,,2013-07-13 07:53:00,
2013-07-13 04:01:00,68.0,67.0,-100.00,East,98,2.0,6.0,98,0.00,,,0.21,0.000000,,2013-07-13 08:01:00,
2013-07-13 04:22:00,68.0,67.0,-100.00,East,98,2.0,6.0,98,0.00,,,0.21,0.000000,,2013-07-13 08:22:00,
2013-07-13 04:33:00,68.0,67.0,-100.00,East,98,2.0,6.0,98,0.00,,,0.21,0.000000,,2013-07-13 08:33:00,
2013-07-13 04:43:00,68.0,67.0,-100.00,East,98,2.0,6.0,98,0.00,,,0.21,0.000000,,2013-07-13 08:43:00,
2013-07-13 04:52:00,68.0,67.0,-100.00,East,98,2.0,6.0,98,0.00,,,0.21,0.000000,,2013-07-13 08:52:00,
2013-07-13 05:01:00,69.0,68.0,-100.00,East,96,2.0,5.0,98,0.01,,,0.22,0.000000,,2013-07-13 09:01:00,
2013-07-13 05:33:00,69.0,68.0,-100.00,East,96,2.0,5.0,98,0.01,,,0.22,0.000000,,2013-07-13 09:33:00,
2013-07-13 05:43:00,69.0,68.0,-100.00,East,96,2.0,5.0,98,0.01,,,0.22,0.000000,,2013-07-13 09:43:00,
2013-07-13 05:53:00,69.0,68.0,-100.00,East,96,2.0,5.0,98,0.01,,,0.22,0.000000,,2013-07-13 09:53:00,
2013-07-13 06:01:00,69.0,69.0,-100.00,East,93,1.0,5.0,99,0.00,,,0.22,1.000000,,2013-07-13 10:01:00,
2013-07-13 06:32:00,69.0,69.0,-100.00,East,93,1.0,5.0,99,0.00,,,0.22,1.000000,,2013-07-13 10:32:00,
2013-07-13 06:43:00,69.0,69.0,-100.00,East,93,1.0,5.0,99,0.00,,,0.22,1.000000,,2013-07-13 10:43:00,
2013-07-13 06:52:00,69.0,69.0,-100.00,East,93,1.0,5.0,99,0.00,,,0.22,1.000000,,2013-07-13 10:52:00,
2013-07-13 07:01:00,70.0,70.0,-100.00,East,94,2.0,6.0,99,0.00,,,0.22,9.000000,,2013-07-13 11:01:00,
2013-07-13 07:32:00,70.0,70.0,-100.00,East,94,2.0,6.0,99,0.00,,,0.22,9.000000,,2013-07-13 11:32:00,
2013-07-13 07:43:00,70.0,70.0,-100.00,East,94,2.0,6.0,99,0.00,,,0.22,9.000000,,2013-07-13 11:43:00,
2013-07-13 07:52:00,70.0,70.0,-100.00,East,94,2.0,6.0,99,0.00,,,0.22,9.000000,,2013-07-13 11:52:00,
2013-07-13 08:01:00,71.0,71.0,-100.00,East,100,2.0,8.0,99,0.01,,,0.23,22.000000,,2013-07-13 12:01:00,
2013-07-13 08:22:00,71.0,71.0,-100.00,East,100,2.0,8.0,99,0.01,,,0.23,22.000000,,2013-07-13 12:22:00,
2013-07-13 08:32:00,71.0,71.0,-100.00,East,100,2.0,8.0,99,0.01,,,0.23,22.000000,,2013-07-13 12:32:00,
2013-07-13 08:43:00,71.0,71.0,-100.00,East,100,2.0,8.0,99,0.01,,,0.23,22.000000,,2013-07-13 12:43:00,
2013-07-13 08:52:00,71.0,71.0,-100.00,East,100,2.0,8.0,99,0.01,,,0.23,22.000000,,2013-07-13 12:52:00,
2013-07-13 09:01:00,72.0,72.0,-100.00,ESE,105,2.0,5.0,99,0.00,,,0.23,42.000000,,2013-07-13 13:01:00,
2013-07-13 09:32:00,72.0,72.0,-100.00,ESE,105,2.0,5.0,99,0.00,,,0.23,42.000000,,2013-07-13 13:32:00,
2013-07-13 09:43:00,72.0,72.0,-100.00,ESE,105,2.0,5.0,99,0.00,,,0.23,42.000000,,2013-07-13 13:43:00,
2013-07-13 09:53:00,72.0,72.0,-100.00,ESE,105,2.0,5.0,99,0.00,,,0.23,42.000000,,2013-07-13 13:53:00,
2013-07-13 10:01:00,74.0,73.0,-100.00,SE,131,2.0,6.0,98,0.00,,,0.23,70.000000,,2013-07-13 14:01:00,
2013-07-13 10:33:00,74.0,73.0,-100.00,SE,131,2.0,6.0,98,0.00,,,0.23,70.000000,,2013-07-13 14:33:00,
2013-07-13 10:44:00,74.0,73.0,-100.00,SE,131,2.0,6.0,98,0.00,,,0.23,70.000000,,2013-07-13 14:44:00,
2013-07-13 10:53:00,74.0,73.0,-100.00,SE,131,2.0,6.0,98,0.00,,,0.23,70.000000,,2013-07-13 14:53:00,
2013-07-13 11:01:00,75.0,73.0,-100.00,ESE,120,3.0,7.0,94,0.01,,,0.24,76.000000,,2013-07-13 15:01:00,
2013-07-13 11:33:00,75.0,73.0,-100.00,ESE,120,3.0,7.0,94,0.01,,,0.24,76.000000,,2013-07-13 15:33:00,
2013-07-13 11:43:00,75.0,73.0,-100.00,ESE,120,3.0,7.0,94,0.01,,,0.24,76.000000,,2013-07-13 15:43:00,
2013-07-13 11:53:00,75.0,73.0,-100.00,ESE,120,3.0,7.0,94,0.01,,,0.24,76.000000,,2013-07-13 15:53:00,
2013-07-13 12:01:00,75.0,73.0,-100.00,ESE,123,1.0,6.0,95,0.01,,,0.25,65.000000,,2013-07-13 16:01:00,
2013-07-13 12:33:00,75.0,73.0,-100.00,ESE,123,1.0,6.0,95,0.01,,,0.25,65.000000,,2013-07-13 16:33:00,
2013-07-13 12:43:00,75.0,73.0,-100.00,ESE,123,1.0,6.0,95,0.01,,,0.25,65.000000,,2013-07-13 16:43:00,
2013-07-13 12:53:00,75.0,73.0,-100.00,ESE,123,1.0,6.0,95,0.01,,,0.25,65.000000,,2013-07-13 16:53:00,
2013-07-13 13:01:00,77.0,74.0,-100.00,SE,131,3.0,8.0,91,0.01,,,0.26,173.000000,,2013-07-13 17:01:00,
2013-07-13 13:22:00,77.0,74.0,-100.00,SE,131,3.0,8.0,91,0.01,,,0.26,173.000000,,2013-07-13 17:22:00,
2013-07-13 13:33:00,77.0,74.0,-100.00,SE,131,3.0,8.0,91,0.01,,,0.26,173.000000,,2013-07-13 17:33:00,
2013-07-13 13:43:00,77.0,74.0,-100.00,SE,131,3.0,8.0,91,0.01,,,0.26,173.000000,,2013-07-13 17:43:00,
2013-07-13 13:52:00,77.0,74.0,-100.00,SE,131,3.0,8.0,91,0.01,,,0.26,173.000000,,2013-07-13 17:52:00,
2013-07-13 14:01:00,77.0,74.0,-100.00,SE,140,3.0,8.0,89,0.00,,,0.26,178.000000,,2013-07-13 18:01:00,
2013-07-13 14:22:00,77.0,74.0,-100.00,SE,140,3.0,8.0,89,0.00,,,0.26,178.000000,,2013-07-13 18:22:00,
2013-07-13 14:32:00,77.0,74.0,-100.00,SE,140,3.0,8.0,89,0.00,,,0.26,178.000000,,2013-07-13 18:32:00,
2013-07-13 14:44:00,77.0,74.0,-100.00,SE,140,3.0,8.0,89,0.00,,,0.26,178.000000,,2013-07-13 18:44:00,
2013-07-13 14:53:00,77.0,74.0,-100.00,SE,140,3.0,8.0,89,0.00,,,0.26,178.000000,,2013-07-13 18:53:00,
2013-07-13 15:01:00,77.0,74.0,-100.00,SE,126,2.0,7.0,89,0.00,,,0.26,120.000000,,2013-07-13 19:01:00,
2013-07-13 15:22:00,77.0,74.0,-100.00,SE,126,2.0,7.0,89,0.00,,,0.26,120.000000,,2013-07-13 19:22:00,
2013-07-13 15:32:00,77.0,74.0,-100.00,SE,126,2.0,7.0,89,0.00,,,0.26,120.000000,,2013-07-13 19:32:00,
2013-07-13 15:44:00,77.0,74.0,-100.00,SE,126,2.0,7.0,89,0.00,,,0.26,120.000000,,2013-07-13 19:44:00,
2013-07-13 15:52:00,77.0,74.0,-100.00,SE,126,2.0,7.0,89,0.00,,,0.26,120.000000,,2013-07-13 19:52:00,
2013-07-13 16:01:00,79.0,75.0,-100.00,SE,133,2.0,7.0,87,0.00,,,0.26,121.000000,,2013-07-13 20:01:00,
2013-07-13 16:33:00,79.0,75.0,-100.00,SE,133,2.0,7.0,87,0.00,,,0.26,121.000000,,2013-07-13 20:33:00,
2013-07-13 16:43:00,79.0,75.0,-100.00,SE,133,2.0,7.0,87,0.00,,,0.26,121.000000,,2013-07-13 20:43:00,
2013-07-13 16:53:00,79.0,75.0,-100.00,SE,133,2.0,7.0,87,0.00,,,0.26,121.000000,,2013-07-13 20:53:00,
2013-07-13 17:01:00,79.0,75.0,-100.00,ESE,120,2.0,9.0,88,0.00,,,0.26,112.000000,,2013-07-13 21:01:00,
2013-07-13 17:22:00,79.0,75.0,-100.00,ESE,120,2.0,9.0,88,0.00,,,0.26,112.000000,,2013-07-13 21:22:00,
2013-07-13 17:32:00,79.0,75.0,-100.00,ESE,120,2.0,9.0,88,0.00,,,0.26,112.000000,,2013-07-13 21:32:00,
2013-07-13 17:43:00,79.0,75.0,-100.00,ESE,120,2.0,9.0,88,0.00,,,0.26,112.000000,,2013-07-13 21:43:00,
2013-07-13 17:53:00,79.0,75.0,-100.00,ESE,120,2.0,9.0,88,0.00,,,0.26,112.000000,,2013-07-13 21:53:00,
2013-07-13 18:01:00,79.0,75.0,-100.00,SE,145,1.0,6.0,87,0.00,,,0.23,65.000000,,2013-07-13 22:01:00,
2013-07-13 18:32:00,79.0,75.0,-100.00,SE,145,1.0,6.0,87,0.00,,,0.23,65.000000,,2013-07-13 22:32:00,
2013-07-13 18:43:00,79.0,75.0,-100.00,SE,145,1.0,6.0,87,0.00,,,0.23,65.000000,,2013-07-13 22:43:00,
2013-07-13 18:53:00,79.0,75.0,-100.00,SE,145,1.0,6.0,87,0.00,,,0.23,65.000000,,2013-07-13 22:53:00,
2013-07-13 19:01:00,77.0,74.0,-100.00,South,187,1.0,6.0,91,0.00,,,0.20,30.000000,,2013-07-13 23:01:00,
2013-07-13 19:22:00,77.0,74.0,-100.00,South,187,1.0,6.0,91,0.00,,,0.20,30.000000,,2013-07-13 23:22:00,
2013-07-13 19:33:00,77.0,74.0,-100.00,South,187,1.0,6.0,91,0.00,,,0.20,30.000000,,2013-07-13 23:33:00,
2013-07-13 19:42:00,77.0,74.0,-100.00,South,187,1.0,6.0,91,0.00,,,0.20,30.000000,,2013-07-13 23:42:00,
2013-07-13 19:53:00,77.0,74.0,-100.00,South,187,1.0,6.0,91,0.00,,,0.20,30.000000,,2013-07-13 23:53:00,
2013-07-13 20:01:00,75.0,73.0,-100.00,SSE,148,1.0,5.0,94,0.00,,,0.15,9.000000,,2013-07-14 00:01:00,
2013-07-13 20:33:00,75.0,73.0,-100.00,SSE,148,1.0,5.0,94,0.00,,,0.15,9.000000,,2013-07-14 00:33:00,
2013-07-13 20:42:00,75.0,73.0,-100.00,SSE,148,1.0,5.0,94,0.00,,,0.15,9.000000,,2013-07-14 00:42:00,
2013-07-13 20:53:00,75.0,73.0,-100.00,SSE,148,1.0,5.0,94,0.00,,,0.15,9.000000,,2013-07-14 00:53:00,
2013-07-13 21:01:00,75.0,74.0,-100.00,SSE,168,1.0,4.0,96,0.00,,,0.09,1.000000,,2013-07-14 01:01:00,
2013-07-13 21:22:00,75.0,74.0,-100.00,SSE,168,1.0,4.0,96,0.00,,,0.09,1.000000,,2013-07-14 01:22:00,
2013-07-13 21:32:00,75.0,74.0,-100.00,SSE,168,1.0,4.0,96,0.00,,,0.09,1.000000,,2013-07-14 01:32:00,
2013-07-13 21:43:00,75.0,74.0,-100.00,SSE,168,1.0,4.0,96,0.00,,,0.09,1.000000,,2013-07-14 01:43:00,
2013-07-13 21:52:00,75.0,74.0,-100.00,SSE,168,1.0,4.0,96,0.00,,,0.09,1.000000,,2013-07-14 01:52:00,
2013-07-13 22:01:00,74.0,73.0,-100.00,SSW,201,0.0,3.0,98,0.00,,,0.06,0.000000,,2013-07-14 02:01:00,
2013-07-13 22:22:00,74.0,73.0,-100.00,SSW,201,0.0,3.0,98,0.00,,,0.06,0.000000,,2013-07-14 02:22:00,
2013-07-13 22:32:00,74.0,73.0,-100.00,SSW,201,0.0,3.0,98,0.00,,,0.06,0.000000,,2013-07-14 02:32:00,
2013-07-13 22:43:00,74.0,73.0,-100.00,SSW,201,0.0,3.0,98,0.00,,,0.06,0.000000,,2013-07-14 02:43:00,
2013-07-13 22:53:00,74.0,73.0,-100.00,SSW,201,0.0,3.0,98,0.00,,,0.06,0.000000,,2013-07-14 02:53:00,
2013-07-13 23:01:00,74.0,73.0,-100.00,South,190,0.0,3.0,98,0.00,,,0.06,0.000000,,2013-07-14 03:01:00,
2013-07-13 23:22:00,74.0,73.0,-100.00,South,190,0.0,3.0,98,0.00,,,0.06,0.000000,,2013-07-14 03:22:00,
2013-07-13 23:32:00,74.0,73.0,-100.00,South,190,0.0,3.0,98,0.00,,,0.06,0.000000,,2013-07-14 03:32:00,
2013-07-13 23:43:00,74.0,73.0,-100.00,South,190,0.0,3.0,98,0.00,,,0.06,0.000000,,2013-07-14 03:43:00,
2013-07-13 23:53:00,74.0,73.0,-100.00,South,190,0.0,3.0,98,0.00,,,0.06,0.000000,,2013-07-14 03:53:00,